This is the latest recevied weather packets stored in our database for station/object KF4PPJ. If no packets are shown the sender has not sent any weather packets the latest 10 day(s).
| Time | Temp. | Humidity | Pressure | Rain* | Wind** | Luminosity | Snow |
|---|---|---|---|---|---|---|---|
| 1778025872 | 18.33° C | 66% | 1018.3 hPa | 0 mm | - | 436 W/m² | - |
| 1778025569 | 18.33° C | 66% | 1018.2 hPa | 0 mm | - | 447 W/m² | - |
| 1778025267 | 18.33° C | 67% | 1018.2 hPa | 0 mm | - | 437 W/m² | - |
| 1778024964 | 17.78° C | 68% | 1018.4 hPa | 0 mm | - | 462 W/m² | - |
| 1778024661 | 17.78° C | 68% | 1018.4 hPa | 0 mm | - | 471 W/m² | - |
| 1778024358 | 18.33° C | 67% | 1018.4 hPa | 0 mm | - | 466 W/m² | - |
| 1778024056 | 17.78° C | 68% | 1018.5 hPa | 0 mm | - | 522 W/m² | - |
| 1778023753 | 17.78° C | 68% | 1018.6 hPa | 0 mm | - | 495 W/m² | - |
| 1778023451 | 17.78° C | 68% | 1018.6 hPa | 0 mm | - | 386 W/m² | - |
| 1778023147 | 17.78° C | 67% | 1018.8 hPa | 0 mm | - | 416 W/m² | - |
| 1778022845 | 17.78° C | 67% | 1018.8 hPa | 0 mm | - | 521 W/m² | - |
| 1778022543 | 17.78° C | 67% | 1018.7 hPa | 0 mm | - | 562 W/m² | - |
| 1778022240 | 17.22° C | 68% | 1018.5 hPa | 0 mm | - | 569 W/m² | - |
| 1778021936 | 17.22° C | 69% | 1019 hPa | 0 mm | - | 401 W/m² | - |
| 1778021634 | 17.22° C | 70% | 1018.8 hPa | 0 mm | - | 346 W/m² | - |
| 1778021329 | 16.67° C | 70% | 1018.6 hPa | 0 mm | - | 372 W/m² | - |
| 1778021027 | 16.67° C | 71% | 1019 hPa | 0 mm | - | 322 W/m² | - |
| 1778020724 | 16.67° C | 70% | 1018.9 hPa | 0 mm | - | 324 W/m² | - |
| 1778020420 | 17.22° C | 70% | 1018.9 hPa | 0 mm | - | 319 W/m² | - |
| 1778020116 | 17.22° C | 70% | 1019 hPa | 0 mm | - | 366 W/m² | - |
| 1778019812 | 16.67° C | 70% | 1019.1 hPa | 0 mm | - | 330 W/m² | - |
| 1778019510 | 16.11° C | 72% | 1018.9 hPa | 0 mm | - | 335 W/m² | - |
| 1778019207 | 16.11° C | 72% | 1019 hPa | 0 mm | - | 329 W/m² | - |
| 1778018904 | 16.67° C | 71% | 1019.1 hPa | 0 mm | - | 311 W/m² | - |
| 1778018600 | 16.11° C | 72% | 1019.4 hPa | 0 mm | - | 290 W/m² | - |
* Rain latest hour (hover to see other rain measurements)
** Current wind speed in m/s (hover to see current wind gust speed)